Погода в Каргаске

Россия / Томская область     59°03′24″N   80°51′38″E
темп.,
°C
ветер,
м/с
пор.,
м/с
влажн.,
%
обл.,
%
осадки,
мм/ч
давл.,
гПа
погр.,
м
5 марта, пт
пт501:00−2ю61294100 0.2 1001851
04:00−2ююз61392100 0.5 999960
07:00−3ююз61389100 0.6 999837
10:00−3ю51290100 0.1 999863
13:00−3ю61089100 0.1 998781
16:00−3ююз51094100 0.6 997779
19:00−1з61290100 1.4 1001834
22:00−5юз5119098 0.1 1002698
6 марта, сб
сб601:00−8ююз399399 0.1 1004403
04:00−8ю3795100 0.3 1003245
07:00−7ю389693 0.4 1003199
10:00−4ююз3995100 0.3 1001551
13:00−2ююз5994100 1.1 999766
16:00−1ююз4888100 0.3 998883
19:00−3ю3994100 0.4 997454
22:00−3з4109798 3.4 996621
7 марта, вс
вс701:00−7зюз6148999 4.1 998661
04:00−9зюз61390100 0.1 1000591
07:00−11зюз61290100 0.1 1004618
10:00−12зюз51290100 0.1 1005637
13:00−9зюз61088100 0.1 1008834
16:00−8зюз6988100 0.1 10111005
19:00−9зюз41092100 0.3 1014522
22:00−13юз399386 0.0 1016202
8 марта, пн
пн801:00−15ююз339778 0.0 101771
04:00−15ю3894100 0.0 1016185
07:00−13юв51194100 0.2 1012339
10:00−9ююв61393100 2.4 1006925
13:00−5ююв61394100 4.6 1000927
16:00−1ю71496100 1.4 9951058
19:00−1ююз71593100 2.7 9911250
22:00−7з91688100 1.1 992770
9 марта, вт
вт901:00−11з81587100 1.1 999924
04:00−13з71588100 0.1 1005735
07:00−15з61491100 0.1 1009532
10:00−15зюз51191100 0.0 1013540
13:00−13зюз5989100 0.0 1016765
16:00−10юз4787100 0.1 1017913
19:00−11ю2594100 0.1 1016165
22:00−12ю4109399 0.0 1014414